User: anonymous   Login
Location: Unspecified
(0.0000°N, 0.0000°E)
Time: 21:52:04
(UTC+00:00)
Language:

AO-73 - Orbit

View from above orbital plane
View from above orbital plane
View from above satellite
View from above satellite

Ground track
Ground track

The orbit data is extracted from the following two-line orbital elements,

1 39444U 13066AE  20184.08032624 +.00000156 +00000-0 +25509-4 0  9997
2 39444 097.5587 183.5287 0056820 220.8996 138.7949 14.82140861355535
Epoch (UTC): 02 July 2020 01:55:40
Eccentricity: 0.0056820
inclination: 97.5587°
perigee height: 583 km
apogee height: 662 km
right ascension of ascending node: 183.5287°
argument of perigee: 220.8996°
revolutions per day: 14.82140861
mean anomaly at epoch: 138.7949°
orbit number at epoch: 35553

The dashed part of the orbit path shows where the satellite is in the earth's shadow,  

DLR